Погода в Погодаеве

Россия / Красноярский край     58°41′53″N   92°03′12″E
темп.,
°C
ветер,
м/с
пор.,
м/с
влажн.,
%
обл.,
%
осадки,
мм/ч
давл.,
гПа
погр.,
м
24 января, пн
пн2401:00−24св1110089 0.1 10369
04:00−25ссв11100100 0.0 10359
07:00−26св11100100 0.1 10369
10:00−23ю01100100 0.1 103638
13:00−18ю1195100 0.1 1035145
16:00−16юв1195100 0.3 1035156
19:00−16ююв1197100 0.8 103566
22:00−14ююв1297100 0.6 103493
25 января, вт
вт2501:00−14ююз1297100 1.1 1033128
04:00−15зюз1398100 0.4 1032101
07:00−18зюз0099100 0.6 10339
10:00−19сз0099100 0.2 103217
13:00−15юв0191100 0.3 1032278
16:00−15вюв119685 0.1 103140
19:00−21св1110068 0.1 10329
22:00−27св1110093 0.0 10339
26 января, ср
ср2601:00−29ссв1110098 0.0 10349
04:00−30ссв1110076 0.0 10349
07:00−31ссв1110040 0.0 10359
10:00−31св1110027 0.0 103611
13:00−20вюв119555 0.0 1035125
16:00−20ююв0098100 0.0 10359
19:00−27всв1110074 0.0 10379
22:00−29всв1110055 0.0 10389
27 января, чт
чт2701:00−31св111006 0.0 10399
04:00−31св1110031 0.0 10399
07:00−32св1110031 0.0 10409
10:00−31св1110028 0.0 104113
13:00−21ююв119535 0.0 1041125
16:00−20ю00985 0.0 10419
19:00−27всв1110056 0.0 10429
22:00−29всв1110075 0.0 10439
28 января, пт
пт2801:00−31в11100100 0.0 10439
04:00−32в11100100 0.0 10439
07:00−33вюв1110099 0.0 10449
10:00−32вюв1110073 0.0 104422
13:00−22ююв129570 0.0 1043129
16:00−21ююв119753 0.0 104211
19:00−27в1110077 0.0 10429
22:00−28в1110093 0.0 10439